Find Starlink 4563

NORAD ID: 53561 Int'l Des: 2022-101 Owner: SPXS Country: US Constellation: starlink operational
LEOCIRCULAR

当前视图

正在加载3D地球...

关于 Starlink 4563

正在加载描述...

即将过境

Passes for default location (London). Set your location on the main map for personalized predictions.

高度历史

Loading altitude history...

两行轨道根数

1 53561U 22101AL 26150.98439130 -.00001291 00000-0 -63012-4 0 9998
2 53561 53.1949 54.6702 0001837 127.2728 232.8432 15.08848673208739
Epoch: May 30, 2026 • Age: 17 hours

当前状态

高度 549.1 km
速度 7.59 km/s
星下点 -27.31°S, 114.76°W
发射日期 Aug 19, 2022
运行时间 3.7 years
类型 internet

技术详情

分类 Payload
质量 300.00 kg
干质量 290.00 kg
总质量 300.00 kg
长度 0.20 m
直径 2.80 m
跨度 9.00 m
形状 Box + pan
制造商 SPXS
平台类型 Starlink
阶段状态 In Orbit
所有者/国家 SPXS/US

Most Searched